Home   Weather   Rasht   Past weeks

Flag for Iran Past Weather in Rasht, Iran — Yesterday and Last 2 Weeks

Now
43 °F

Rain. Mostly cloudy.


Feels Like: 36 °F
Forecast: 35 / 45 °F
Wind: 12 mph from West

Location: Rasht Airport

Current Time: Jan 21, 2017 at 10:01:17 am

Latest Report: Jan 21, 2017 at 9:30 am


Visibility: 2 mi

Pressure: 30.24 "Hg

Humidity: 93%

Dew Point: 41 °F

Location of RashtLocation

Past Weather in Rasht — Graph

°F

Rasht Temperature Yesterday

Maximum temperature yesterday: 46 °F (at 1:00 pm)
Minimum temperature yesterday: 41 °F (at 7:00 am)
Average temperature yesterday: 44 °F

High & Low Weather Summary for the Past Weeks

 TemperatureHumidityPressure
High57 °F (Jan 7, 1:30 pm)100% (Jan 7, 6:30 am)30.39 "Hg (Jan 7, 6:30 am)
Low32 °F (Jan 15, 7:00 am)55% (Jan 7, 1:30 pm)29.86 "Hg (Jan 9, 6:30 am)
Average47 °F89%30.15 "Hg
* Reported Jan 6 8:00 pm — Jan 21 8:30 am, Rasht, Weather by CustomWeather, © 2017

Note: Actual official high and low records may vary slightly from our data, if they occured in-between our weather recording intervals... More about our weather records

Advertising

Rasht Weather History for the Previous 24 Hours

Scroll right to see more
 ConditionsComfort  
Time TempWeatherWind HumidityBarometerVisibility
8:30 am
Sat, Jan 21
43 °FRain. Mostly cloudy.7 mph100%30.24 "Hg2 mi
8:00 am43 °FRain. Mostly cloudy.7 mph100%30.21 "Hg2 mi
7:30 am43 °FRain. Mostly cloudy.7 mph100%30.21 "Hg2 mi
7:00 am43 °FRain. Mostly cloudy.7 mph100%30.21 "Hg4 mi
8:00 pm
Fri, Jan 20
45 °FMostly cloudy.2 mph93%30.30 "HgN/A
7:30 pm45 °FMostly cloudy.2 mph93%30.30 "HgN/A
7:00 pm45 °FMostly cloudy.No wind93%30.30 "HgN/A
6:30 pm45 °FMostly cloudy.No wind93%30.27 "HgN/A
6:00 pm45 °FOvercast.2 mph93%30.27 "HgN/A
5:30 pm45 °FCloudy.5 mph93%30.27 "HgN/A
5:00 pm45 °FCloudy.5 mph93%30.27 "HgN/A
4:30 pm45 °FCloudy.5 mph93%30.27 "HgN/A
4:00 pm45 °FCloudy.7 mph87%30.27 "HgN/A
3:30 pm45 °FCloudy.5 mph87%30.30 "HgN/A
3:00 pm45 °FCloudy.7 mph93%30.30 "HgN/A
2:30 pm46 °FPartly sunny.9 mph87%30.30 "HgN/A
2:00 pm46 °FPartly sunny.7 mph87%30.30 "HgN/A
1:30 pm46 °FPartly sunny.7 mph87%30.33 "HgN/A
1:00 pm46 °FMostly cloudy.7 mph87%30.36 "HgN/A
12:30 pm45 °FMostly cloudy.7 mph93%30.36 "HgN/A
12:00 pm45 °FMostly cloudy.7 mph93%30.36 "HgN/A
11:30 am45 °FMostly cloudy.9 mph93%30.39 "HgN/A
11:00 am43 °FDrizzle. Mostly cloudy.9 mph100%30.39 "Hg5 mi
10:30 am43 °FDrizzle. Mostly cloudy.7 mph100%30.39 "Hg4 mi
10:00 am43 °FDrizzle. Mostly cloudy.7 mph100%30.39 "Hg2 mi
Weather by CustomWeather, © 2017

See weather overviewHow to use our weather pages